Date String (YYYY-MM-DD hh:mm:ss) UTC,Instrument flags,Ambient pressure (hPa),Sample flow (lpm),Bypass flow (lpm),Sample temperature (°C),Ambient temperature (°C),ASC tube jacket temperature (°C),LED temperature (°C),Box temperature (°C),Sample RH (%),Span deviation,Mass concentration (μg/m³),Mass concentration (μg/m³),Mass concentration (μg/m³)
DateTimeUTC,F1_M11,P_M11,Q1_M11,Q2_M11,T1_M11,T2_M11,T3_M11,T4_M11,T5_M11,U1_M11,ZSPAN_M11,X0_M11,X2_M11,X1_M11
2023-02-21 07:00:00,,0814.9,5.00,0.00,22.0,21.9,00.0,30.9,23.9,13.4,0000.0,0001.53,0000.87,0000.57
2023-02-21 07:01:00,,0814.9,5.00,0.00,22.2,23.0,00.0,30.9,24.3,13.1,0000.0,0001.65,0000.92,0000.57
2023-02-21 07:02:00,,0814.9,5.00,0.00,22.3,23.0,00.0,30.9,24.4,13.1,0000.0,0001.65,0000.92,0000.58
2023-02-21 07:03:00,,0814.9,5.00,0.00,22.3,22.4,00.0,31.0,24.3,13.1,0000.0,0001.67,0000.94,0000.59
2023-02-21 07:04:00,,0814.9,4.99,0.00,22.3,21.9,00.0,31.1,24.1,13.2,0000.0,0001.81,0001.00,0000.60
2023-02-21 07:05:00,,0815.0,4.97,0.00,22.3,21.6,00.0,31.1,24.1,13.2,0000.0,0001.95,0001.04,0000.60
2023-02-21 07:06:00,,0814.9,5.00,0.00,22.3,21.4,00.0,31.1,24.0,13.3,0000.0,0002.03,0001.06,0000.61
2023-02-21 07:07:00,,0814.9,5.00,0.00,22.3,21.1,00.0,31.1,23.9,13.2,0000.0,0002.71,0001.10,0000.62
2023-02-21 07:08:00,,0815.0,5.00,0.00,22.2,20.9,00.0,31.1,23.8,13.1,0000.0,0003.36,0001.14,0000.62
2023-02-21 07:09:00,,0814.9,5.01,0.00,22.2,20.8,00.0,31.1,23.8,13.1,0000.0,0003.34,0001.13,0000.61
2023-02-21 07:10:00,,0815.1,5.01,0.00,22.2,20.6,00.0,31.1,23.7,13.2,0000.0,0003.27,0001.09,0000.61
2023-02-21 07:11:00,,0815.0,5.00,0.00,22.1,20.5,00.0,31.1,23.7,13.3,0000.0,0003.15,0001.07,0000.61
2023-02-21 07:12:00,,0815.0,5.00,0.00,22.1,20.4,00.0,31.1,23.6,13.3,0000.0,0003.17,0001.04,0000.61
2023-02-21 07:13:00,,0814.9,4.99,0.00,22.1,20.4,00.0,31.1,23.6,13.3,0000.0,0003.21,0001.04,0000.61
2023-02-21 07:14:00,,0815.1,5.00,0.00,22.0,20.3,00.0,31.1,23.6,13.3,0000.0,0003.14,0001.01,0000.61
2023-02-21 07:15:00,,0815.1,5.01,0.00,22.0,20.2,00.0,31.1,23.6,13.4,0000.0,0003.11,0000.99,0000.60
2023-02-21 07:16:00,,0815.2,5.00,0.00,22.0,20.2,00.0,31.0,23.5,13.4,0000.0,0003.11,0000.99,0000.61
2023-02-21 07:17:00,,0815.2,4.98,0.00,22.0,21.1,00.0,30.9,23.8,13.4,0000.0,0003.16,0001.00,0000.61
2023-02-21 07:18:00,,0815.1,5.00,0.00,22.1,22.3,00.0,30.9,24.1,13.3,0000.0,0002.87,0000.97,0000.60
2023-02-21 07:19:00,,0815.1,4.99,0.00,22.3,23.0,00.0,30.9,24.3,13.3,0000.0,0001.91,0000.98,0000.59
2023-02-21 07:20:00,,0815.0,5.00,0.00,22.3,22.6,00.0,31.0,24.3,13.3,0000.0,0001.87,0000.98,0000.60
2023-02-21 07:21:00,,0815.0,5.01,0.00,22.3,22.0,00.0,31.1,24.1,13.2,0000.0,0001.88,0000.99,0000.60
2023-02-21 07:22:00,,0814.9,4.99,0.00,22.3,21.6,00.0,31.1,24.0,13.2,0000.0,0001.95,0001.01,0000.60
2023-02-21 07:23:00,,0815.1,4.99,0.00,22.3,21.4,00.0,31.1,24.0,13.2,0000.0,0001.88,0001.00,0000.59
2023-02-21 07:24:00,,0815.2,5.00,0.00,22.3,21.2,00.0,31.1,23.9,13.2,0000.0,0001.72,0000.98,0000.59
2023-02-21 07:25:00,,0815.0,5.01,0.00,22.2,21.0,00.0,31.1,23.9,13.2,0000.0,0001.69,0000.97,0000.59
2023-02-21 07:26:00,,0814.9,5.00,0.00,22.2,20.8,00.0,31.1,23.9,13.1,0000.0,0001.72,0000.97,0000.59
2023-02-21 07:27:00,,0815.0,5.00,0.00,22.2,20.7,00.0,31.1,23.8,13.2,0000.0,0001.81,0000.97,0000.59
2023-02-21 07:28:00,,0815.0,5.00,0.00,22.2,20.6,00.0,31.1,23.8,13.2,0000.0,0001.97,0000.94,0000.57
2023-02-21 07:29:00,,0815.0,5.00,0.00,22.1,20.5,00.0,31.1,23.8,13.2,0000.0,0001.95,0000.92,0000.58
2023-02-21 07:30:00,,0815.0,5.00,0.00,22.1,20.5,00.0,31.1,23.7,13.2,0000.0,0001.84,0000.89,0000.57
2023-02-21 07:31:00,,0815.1,4.99,0.00,22.1,20.4,00.0,31.1,23.7,13.2,0000.0,0001.79,0000.86,0000.57
2023-02-21 07:32:00,,0815.0,5.00,0.00,22.1,20.3,00.0,31.1,23.7,13.3,0000.0,0002.56,0000.85,0000.55
2023-02-21 07:33:00,,0815.1,5.01,0.00,22.0,20.3,00.0,31.1,23.7,13.2,0000.0,0002.96,0000.82,0000.54
2023-02-21 07:34:00,,0815.2,5.01,0.00,22.0,20.2,00.0,31.0,23.6,13.2,0000.0,0002.96,0000.81,0000.55
2023-02-21 07:35:00,,0815.0,5.00,0.00,22.0,20.2,00.0,31.0,23.6,13.3,0000.0,0003.04,0000.84,0000.55
2023-02-21 07:36:00,,0814.9,4.99,0.00,22.0,20.2,00.0,31.0,23.6,13.1,0000.0,0003.16,0000.88,0000.55
2023-02-21 07:37:00,,0815.1,4.98,0.00,21.9,20.3,00.0,31.0,23.6,13.1,0000.0,0003.32,0000.90,0000.54
2023-02-21 07:38:00,,0815.5,5.01,0.00,22.0,21.3,00.0,30.9,23.8,13.2,0000.0,0003.19,0000.88,0000.53
2023-02-21 07:39:00,,0815.2,5.02,0.00,22.1,22.6,00.0,30.9,24.2,13.3,0000.0,0002.94,0000.90,0000.54
2023-02-21 07:40:00,,0814.9,4.96,0.00,22.3,23.2,00.0,30.9,24.4,13.1,0000.0,0002.97,0000.92,0000.53
2023-02-21 07:41:00,,0814.9,4.97,0.00,22.3,22.7,00.0,31.0,24.3,13.0,0000.0,0003.04,0000.94,0000.54
2023-02-21 07:42:00,,0814.8,5.00,0.00,22.3,22.1,00.0,31.1,24.2,13.0,0000.0,0003.10,0000.95,0000.54
2023-02-21 07:43:00,,0814.8,5.00,0.00,22.3,21.7,00.0,31.1,24.1,12.9,0000.0,0002.35,0000.96,0000.55
2023-02-21 07:44:00,,0814.9,5.01,0.00,22.3,21.4,00.0,31.1,24.1,13.0,0000.0,0002.15,0000.97,0000.56
2023-02-21 07:45:00,,0814.8,5.00,0.00,22.3,21.1,00.0,31.1,24.0,13.1,0000.0,0002.46,0000.98,0000.56
2023-02-21 07:46:00,,0815.2,5.00,0.00,22.3,20.9,00.0,31.1,24.0,13.0,0000.0,0002.41,0000.96,0000.56
2023-02-21 07:47:00,,0815.2,5.00,0.00,22.3,20.8,00.0,31.1,24.0,13.1,0000.0,0002.32,0000.92,0000.56
2023-02-21 07:48:00,,0815.0,5.01,0.00,22.2,20.7,00.0,31.1,24.0,13.1,0000.0,0002.23,0000.91,0000.56
2023-02-21 07:49:00,,0814.9,5.00,0.00,22.2,20.6,00.0,31.1,23.9,13.2,0000.0,0002.25,0000.93,0000.56
2023-02-21 07:50:00,,0815.1,5.00,0.00,22.2,20.5,00.0,31.1,23.9,13.3,0000.0,0002.33,0000.93,0000.56
2023-02-21 07:51:00,,0814.5,5.00,0.00,22.2,20.5,00.0,31.1,23.9,13.3,0000.0,0002.30,0000.92,0000.56
2023-02-21 07:52:00,,0814.5,5.00,0.00,22.1,20.4,00.0,31.1,23.8,13.3,0000.0,0002.45,0000.96,0000.56
2023-02-21 07:53:00,,0814.9,5.00,0.00,22.1,20.4,00.0,31.1,23.7,13.2,0000.0,0002.36,0000.91,0000.54
2023-02-21 07:54:00,,0814.5,4.99,0.00,22.1,20.3,00.0,31.1,23.7,13.1,0000.0,0002.40,0000.89,0000.53
2023-02-21 07:55:00,,0814.4,5.00,0.00,22.0,20.3,00.0,31.1,23.6,13.1,0000.0,0002.29,0000.91,0000.52
2023-02-21 07:56:00,,0814.8,5.01,0.00,22.0,20.3,00.0,31.0,23.6,13.0,0000.0,0002.02,0000.92,0000.52
2023-02-21 07:57:00,,0814.9,4.99,0.00,22.0,20.3,00.0,31.0,23.6,13.2,0000.0,0002.06,0000.94,0000.52
2023-02-21 07:58:00,,0815.0,4.99,0.00,22.0,20.2,00.0,31.0,23.6,13.2,0000.0,0002.09,0000.96,0000.52
2023-02-21 07:59:00,,0814.4,5.00,0.00,21.9,20.1,00.0,31.0,23.6,13.3,0000.0,0002.02,0000.93,0000.52
